| time (UTC) | temp F | wind direction | speed MPH | gust MPH | rain 1hr in | rain 24hr in | rain mn in | humidity % | barometer mb |
| 20260506091018 | 57 | 48 | 6.0 | 9.0 | 0.00 | 0.48 | 0.47 | 87 | 1010.8 |
| 20260506090018 | 57 | 47 | 6.0 | 9.0 | 0.00 | 0.48 | 0.47 | 87 | 1010.6 |
| 20260506085019 | 57 | 46 | 6.0 | 8.0 | 0.00 | 0.48 | 0.47 | 86 | 1010.7 |
| 20260506084038 | 58 | 22 | 12.0 | 17.0 | 0.00 | 0.48 | 0.47 | 84 | 1010.6 |
| 20260506083038 | 58 | 17 | 13.0 | 18.0 | 0.00 | 0.48 | 0.47 | 85 | 1010.7 |
| 20260506082018 | 58 | 37 | 6.0 | 12.0 | 0.02 | 0.48 | 0.47 | 85 | 1010.7 |
| 20260506081018 | 59 | 42 | 8.0 | 15.0 | 0.10 | 0.48 | 0.47 | 84 | 1010.6 |
| 20260506073016 | 61 | 319 | 14.0 | 42.0 | 0.47 | 0.48 | 0.47 | 83 | 1010.6 |
| 20260506072016 | 61 | 310 | 7.0 | 12.0 | 0.45 | 0.46 | 0.45 | 83 | 1010.4 |
| 20260506071036 | 62 | 320 | 8.0 | 13.0 | 0.38 | 0.39 | 0.38 | 83 | 1010.3 |
| 20260506062017 | 63 | 52 | 5.0 | 12.0 | 0.00 | 0.01 | 0.00 | 76 | 1009.9 |
| 20260506061017 | 64 | 49 | 7.0 | 12.0 | 0.00 | 0.01 | 0.00 | 75 | 1009.8 |
| 20260506051018 | 66 | 47 | 6.0 | 14.0 | 0.00 | 0.01 | 0.00 | 70 | 1009.7 |
| 20260506045018 | 67 | 46 | 6.0 | 12.0 | 0.00 | 0.01 | 0.01 | 69 | 1009.8 |
| 20260506044018 | 67 | 53 | 6.0 | 11.0 | 0.00 | 0.01 | 0.01 | 69 | 1009.8 |
| 20260506043018 | 68 | 52 | 6.0 | 11.0 | 0.00 | 0.01 | 0.01 | 70 | 1009.9 |
| 20260506042019 | 68 | 35 | 6.0 | 12.0 | 0.00 | 0.01 | 0.01 | 71 | 1009.8 |
| 20260506041056 | 69 | 35 | 4.0 | 9.0 | 0.00 | 0.01 | 0.01 | 70 | 1009.5 |
| 20260506040036 | 69 | 50 | 5.0 | 10.0 | 0.00 | 0.01 | 0.01 | 69 | 1009.2 |
| 20260506035036 | 70 | 44 | 6.0 | 12.0 | 0.00 | 0.01 | 0.01 | 69 | 1009.2 |
| 20260506034016 | 70 | 27 | 7.0 | 12.0 | 0.00 | 0.01 | 0.01 | 68 | 1009.3 |
| 20260506033016 | 70 | 29 | 6.0 | 10.0 | 0.00 | 0.01 | 0.01 | 68 | 1009.1 |
| 20260506032016 | 71 | 31 | 6.0 | 12.0 | 0.00 | 0.01 | 0.01 | 67 | 1009.2 |
| 20260506031017 | 71 | 26 | 6.0 | 12.0 | 0.00 | 0.01 | 0.01 | 67 | 1009.0 |
| 20260506030017 | 72 | 22 | 6.0 | 11.0 | 0.00 | 0.01 | 0.01 | 67 | 1008.9 |
| 20260506025017 | 72 | 33 | 5.0 | 9.0 | 0.00 | 0.01 | 0.01 | 66 | 1008.7 |
| 20260506024017 | 73 | 23 | 6.0 | 10.0 | 0.00 | 0.01 | 0.01 | 68 | 1008.3 |
| 20260506023017 | 74 | 23 | 8.0 | 14.0 | 0.00 | 0.01 | 0.01 | 68 | 1008.0 |
| 20260506022017 | 74 | 9 | 11.0 | 14.0 | 0.01 | 0.01 | 0.01 | 69 | 1007.6 |
| 20260506021017 | 75 | 4 | 11.0 | 16.0 | 0.01 | 0.01 | 0.01 | 68 | 1007.4 |
| 20260506020017 | 75 | 17 | 9.0 | 15.0 | 0.01 | 0.01 | 0.01 | 68 | 1007.2 |
| 20260506015018 | 76 | 21 | 9.0 | 15.0 | 0.01 | 0.01 | 0.01 | 67 | 1007.1 |
| 20260506014018 | 77 | 13 | 12.0 | 16.0 | 0.01 | 0.01 | 0.01 | 67 | 1006.8 |
| 20260506013018 | 78 | 356 | 15.0 | 19.0 | 0.01 | 0.01 | 0.01 | 65 | 1006.5 |
| 20260506012018 | 80 | 360 | 13.0 | 24.0 | 0.00 | 0.00 | 0.00 | 63 | 1006.1 |
| 20260506011018 | 82 | 319 | 3.0 | 12.0 | 0.00 | 0.00 | 0.00 | 54 | 1005.6 |
| 20260506010018 | 83 | 194 | 2.0 | 5.0 | 0.00 | 0.00 | 0.00 | 54 | 1005.4 |
| 20260506005019 | 83 | 169 | 3.0 | 5.0 | 0.00 | 0.00 | 0.00 | 54 | 1005.2 |
| 20260506004019 | 84 | 169 | 2.0 | 4.0 | 0.00 | 0.00 | 0.00 | 53 | 1005.3 |
| 20260506003018 | 85 | 166 | 2.0 | 5.0 | 0.00 | 0.00 | 0.00 | 52 | 1005.3 |
| 20260506002016 | 86 | 163 | 2.0 | 6.0 | 0.00 | 0.00 | 0.00 | 50 | 1005.2 |
| 20260506001016 | 87 | 170 | 2.0 | 5.0 | 0.00 | 0.00 | 0.00 | 48 | 1005.3 |
| 20260506000016 | 88 | 182 | 2.0 | 5.0 | 0.00 | 0.00 | 0.00 | 48 | 1005.3 |
| 20260505235016 | 89 | 186 | 3.0 | 6.0 | 0.00 | 0.00 | 0.00 | 45 | 1005.4 |
| 20260505234017 | 89 | 207 | 4.0 | 6.0 | 0.00 | 0.00 | 0.00 | 44 | 1005.3 |
| 20260505233017 | 89 | 221 | 2.0 | 5.0 | 0.00 | 0.00 | 0.00 | 44 | 1005.5 |
| 20260505232017 | 88 | 220 | 3.0 | 7.0 | 0.00 | 0.00 | 0.00 | 45 | 1005.6 |
| 20260505231037 | 89 | 217 | 3.0 | 6.0 | 0.00 | 0.00 | 0.00 | 45 | 1005.6 |
| 20260505230017 | 88 | 219 | 4.0 | 6.0 | 0.00 | 0.00 | 0.00 | 45 | 1005.5 |
| 20260505225017 | 88 | 220 | 4.0 | 8.0 | 0.00 | 0.00 | 0.00 | 45 | 1005.5 |
| 20260505224037 | 87 | 215 | 3.0 | 6.0 | 0.00 | 0.00 | 0.00 | 47 | 1005.5 |
| 20260505223038 | 88 | 238 | 3.0 | 7.0 | 0.00 | 0.00 | 0.00 | 49 | 1005.6 |
| 20260505222037 | 88 | 250 | 2.0 | 5.0 | 0.00 | 0.00 | 0.00 | 47 | 1005.6 |
| 20260505221018 | 86 | 249 | 3.0 | 4.0 | 0.00 | 0.00 | 0.00 | 48 | 1005.7 |
| 20260505220018 | 87 | 257 | 5.0 | 8.0 | 0.00 | 0.00 | 0.00 | 49 | 1005.8 |
| 20260505215018 | 87 | 275 | 4.0 | 7.0 | 0.00 | 0.00 | 0.00 | 46 | 1005.9 |
| 20260505214038 | 88 | 261 | 5.0 | 7.0 | 0.00 | 0.00 | 0.00 | 45 | 1005.9 |
| 20260505213018 | 87 | 235 | 3.0 | 7.0 | 0.00 | 0.00 | 0.00 | 48 | 1005.9 |
| 20260505212038 | 87 | 269 | 3.0 | 4.0 | 0.00 | 0.00 | 0.00 | 45 | 1005.9 |
| 20260505211016 | 87 | 268 | 4.0 | 7.0 | 0.00 | 0.00 | 0.00 | 50 | 1006.0 |
| 20260505210019 | 88 | 273 | 3.0 | 4.0 | 0.00 | 0.00 | 0.00 | 46 | 1006.1 |
| 20260505205016 | 88 | 274 | 2.0 | 3.0 | 0.00 | 0.00 | 0.00 | 43 | 1006.1 |
| 20260505204018 | 87 | 249 | 2.0 | 3.0 | 0.00 | 0.00 | 0.00 | 46 | 1006.2 |
| 20260505203016 | 87 | 277 | 3.0 | 5.0 | 0.00 | 0.00 | 0.00 | 51 | 1006.3 |
| 20260505202036 | 87 | 241 | 3.0 | 7.0 | 0.00 | 0.00 | 0.00 | 54 | 1006.4 |
| 20260505201016 | 86 | 245 | 4.0 | 8.0 | 0.00 | 0.00 | 0.00 | 56 | 1006.6 |
| 20260505200017 | 86 | 251 | 4.0 | 7.0 | 0.00 | 0.00 | 0.00 | 52 | 1006.7 |
| 20260505195037 | 87 | 229 | 4.0 | 6.0 | 0.00 | 0.00 | 0.00 | 54 | 1006.8 |
| 20260505194037 | 86 | 215 | 4.0 | 7.0 | 0.00 | 0.00 | 0.00 | 56 | 1006.8 |
| 20260505193017 | 86 | 227 | 3.0 | 6.0 | 0.00 | 0.00 | 0.00 | 59 | 1006.9 |
| 20260505192037 | 85 | 231 | 5.0 | 10.0 | 0.00 | 0.00 | 0.00 | 58 | 1007.0 |
| 20260505191017 | 85 | 225 | 4.0 | 9.0 | 0.00 | 0.00 | 0.00 | 60 | 1007.3 |
| 20260505190018 | 84 | 224 | 4.0 | 7.0 | 0.00 | 0.00 | 0.00 | 62 | 1007.3 |
| 20260505185017 | 84 | 247 | 4.0 | 6.0 | 0.00 | 0.00 | 0.00 | 62 | 1007.5 |
| 20260505184018 | 84 | 227 | 4.0 | 8.0 | 0.00 | 0.00 | 0.00 | 61 | 1007.5 |
| 20260505183018 | 83 | 227 | 4.0 | 8.0 | 0.00 | 0.00 | 0.00 | 62 | 1007.7 |
| 20260505182018 | 82 | 244 | 7.0 | 10.0 | 0.00 | 0.00 | 0.00 | 64 | 1007.8 |
| 20260505181038 | 81 | 231 | 5.0 | 9.0 | 0.00 | 0.00 | 0.00 | 65 | 1007.8 |
| 20260505180018 | 81 | 236 | 6.0 | 9.0 | 0.00 | 0.00 | 0.00 | 68 | 1008.0 |
| 20260505175018 | 81 | 231 | 5.0 | 8.0 | 0.00 | 0.00 | 0.00 | 69 | 1008.0 |
| 20260505174018 | 81 | 227 | 4.0 | 7.0 | 0.00 | 0.00 | 0.00 | 69 | 1008.1 |
| 20260505173019 | 80 | 220 | 5.0 | 9.0 | 0.00 | 0.00 | 0.00 | 70 | 1008.2 |
| 20260505172036 | 80 | 213 | 4.0 | 13.0 | 0.00 | 0.00 | 0.00 | 71 | 1008.2 |
| 20260505171016 | 80 | 233 | 6.0 | 10.0 | 0.00 | 0.00 | 0.00 | 72 | 1008.2 |
| 20260505170016 | 79 | 213 | 6.0 | 12.0 | 0.00 | 0.00 | 0.00 | 72 | 1008.1 |
| 20260505165016 | 79 | 227 | 5.0 | 9.0 | 0.00 | 0.00 | 0.00 | 73 | 1008.3 |
| 20260505164016 | 78 | 215 | 6.0 | 10.0 | 0.00 | 0.00 | 0.00 | 73 | 1008.3 |
| 20260505163017 | 78 | 219 | 5.0 | 10.0 | 0.00 | 0.00 | 0.00 | 73 | 1008.1 |
| 20260505162036 | 78 | 205 | 7.0 | 12.0 | 0.00 | 0.00 | 0.00 | 74 | 1007.9 |
| 20260505161017 | 77 | 208 | 6.0 | 12.0 | 0.00 | 0.00 | 0.00 | 76 | 1007.9 |
| 20260505153037 | 75 | 211 | 6.0 | 14.0 | 0.00 | 0.00 | 0.00 | 80 | 1007.9 |
| 20260505152018 | 74 | 210 | 6.0 | 12.0 | 0.00 | 0.00 | 0.00 | 80 | 1008.0 |
| 20260505151038 | 74 | 204 | 6.0 | 11.0 | 0.00 | 0.00 | 0.00 | 81 | 1008.0 |
| 20260505125023 | 65 | 161 | 2.0 | 3.0 | 0.00 | 0.00 | 0.00 | 94 | 1007.5 |
| 20260505124023 | 65 | 128 | 2.0 | 3.0 | 0.00 | 0.00 | 0.00 | 94 | 1007.4 |
| 20260505123023 | 64 | 122 | 3.0 | 4.0 | 0.00 | 0.00 | 0.00 | 94 | 1007.2 |
| 20260505122023 | 64 | 167 | 2.0 | 4.0 | 0.00 | 0.00 | 0.00 | 95 | 1007.1 |
| 20260505121023 | 63 | 122 | 2.0 | 5.0 | 0.00 | 0.00 | 0.00 | 96 | 1007.0 |
| 20260505120023 | 63 | 107 | 2.0 | 4.0 | 0.00 | 0.00 | 0.00 | 96 | 1007.0 |
| 20260505115023 | 64 | 83 | 2.0 | 3.0 | 0.00 | 0.00 | 0.00 | 95 | 1006.9 |
| 20260505114023 | 64 | 87 | 2.0 | 4.0 | 0.00 | 0.00 | 0.00 | 95 | 1006.8 |
| 20260505113024 | 64 | 107 | 2.0 | 2.0 | 0.00 | 0.00 | 0.00 | 95 | 1006.6 |
| 20260505112044 | 64 | 114 | 2.0 | 4.0 | 0.00 | 0.00 | 0.00 | 94 | 1006.6 |
| 20260505111024 | 64 | 107 | 2.0 | 3.0 | 0.00 | 0.00 | 0.00 | 93 | 1006.8 |
| 20260505102025 | 66 | 121 | 2.0 | 3.0 | 0.00 | 0.00 | 0.00 | 90 | 1006.5 |
| 20260505101024 | 66 | 154 | 2.0 | 3.0 | 0.00 | 0.00 | 0.00 | 89 | 1006.4 |
| 20260505100045 | 66 | 162 | 2.0 | 4.0 | 0.00 | 0.00 | 0.00 | 89 | 1006.4 |
| 20260505095025 | 66 | 166 | 2.0 | 4.0 | 0.00 | 0.00 | 0.00 | 89 | 1006.6 |
| 20260505094105 | 67 | 158 | 2.0 | 3.0 | 0.00 | 0.00 | 0.00 | 88 | 1006.6 |
| 20260505093017 | 67 | 169 | 2.0 | 5.0 | 0.00 | 0.00 | 0.00 | 88 | 1006.6 |
| 20260505092018 | 67 | 177 | 2.0 | 6.0 | 0.00 | 0.00 | 0.00 | 88 | 1006.7 |